| time (UTC) | temp C | wind direction | speed KPH | gust KPH | rain 1hr cm | rain 24hr cm | rain mn cm | humidity % | barometer mb |
| 20260503220504 | 13 | 311 | 14.5 | 48.3 | 0.43 | 1.45 | 1.32 | 94 | 1011.4 |
| 20260503220003 | 13 | 314 | 12.9 | 29.0 | 0.43 | 1.42 | 1.30 | 93 | 1011.6 |
| 20260503215503 | 13 | 309 | 12.9 | 24.1 | 0.41 | 1.40 | 1.27 | 94 | 1011.5 |
| 20260503215003 | 13 | 296 | 14.5 | 20.9 | 0.30 | 1.27 | 1.17 | 94 | 1011.4 |
| 20260503214504 | 13 | 293 | 17.7 | 27.4 | 0.20 | 1.17 | 1.07 | 94 | 1011.4 |
| 20260503214024 | 13 | 308 | 17.7 | 32.2 | 0.18 | 1.17 | 1.04 | 93 | 1011.4 |
| 20260503213504 | 13 | 314 | 17.7 | 32.2 | 0.15 | 1.12 | 0.99 | 93 | 1011.2 |
| 20260503213004 | 13 | 310 | 12.9 | 30.6 | 0.15 | 1.12 | 0.99 | 93 | 1011.3 |
| 20260503212504 | 13 | 309 | 11.3 | 30.6 | 0.15 | 1.12 | 0.99 | 93 | 1011.2 |
| 20260503212004 | 13 | 301 | 11.3 | 22.5 | 0.15 | 1.12 | 0.99 | 93 | 1011.3 |
| 20260503211504 | 13 | 300 | 12.9 | 17.7 | 0.15 | 1.09 | 0.99 | 93 | 1011.3 |
| 20260503211003 | 13 | 313 | 12.9 | 20.9 | 0.18 | 1.04 | 0.91 | 93 | 1011.2 |
| 20260503210525 | 13 | 319 | 12.9 | 22.5 | 0.25 | 1.02 | 0.89 | 93 | 1011.2 |
| 20260503210004 | 13 | 312 | 14.5 | 22.5 | 0.25 | 0.99 | 0.89 | 93 | 1011.2 |
| 20260503205504 | 13 | 311 | 14.5 | 24.1 | 0.28 | 0.99 | 0.89 | 93 | 1011.2 |
| 20260503205003 | 13 | 312 | 14.5 | 24.1 | 0.43 | 0.99 | 0.86 | 93 | 1011.0 |
| 20260503204503 | 13 | 312 | 12.9 | 29.0 | 0.43 | 0.99 | 0.86 | 93 | 1011.0 |
| 20260503204003 | 13 | 312 | 12.9 | 29.0 | 0.46 | 0.99 | 0.86 | 93 | 1011.0 |
| 20260503203503 | 13 | 311 | 11.3 | 20.9 | 0.48 | 0.99 | 0.86 | 93 | 1011.0 |
| 20260503203003 | 13 | 303 | 11.3 | 17.7 | 0.51 | 0.99 | 0.86 | 93 | 1010.9 |
| 20260503202504 | 13 | 296 | 9.7 | 17.7 | 0.51 | 0.99 | 0.86 | 93 | 1010.8 |
| 20260503202004 | 13 | 297 | 9.7 | 16.1 | 0.66 | 0.99 | 0.86 | 93 | 1010.8 |
| 20260503201503 | 13 | 296 | 11.3 | 16.1 | 0.64 | 0.97 | 0.84 | 92 | 1010.7 |
| 20260503201003 | 13 | 296 | 12.9 | 20.9 | 0.53 | 0.86 | 0.74 | 92 | 1010.7 |
| 20260503200504 | 13 | 309 | 11.3 | 24.1 | 0.43 | 0.76 | 0.64 | 92 | 1010.5 |
| 20260503200003 | 13 | 318 | 11.3 | 24.1 | 0.43 | 0.74 | 0.61 | 92 | 1010.4 |
| 20260503195503 | 13 | 314 | 12.9 | 24.1 | 0.43 | 0.71 | 0.61 | 92 | 1010.3 |
| 20260503195003 | 13 | 307 | 14.5 | 24.1 | 0.23 | 0.53 | 0.43 | 92 | 1010.5 |
| 20260503194525 | 13 | 304 | 14.5 | 24.1 | 0.23 | 0.53 | 0.43 | 92 | 1010.6 |
| 20260503194003 | 13 | 304 | 12.9 | 29.0 | 0.23 | 0.51 | 0.41 | 92 | 1010.6 |
| 20260503193503 | 13 | 305 | 12.9 | 29.0 | 0.25 | 0.51 | 0.38 | 92 | 1010.5 |
| 20260503193004 | 13 | 309 | 14.5 | 20.9 | 0.23 | 0.48 | 0.36 | 92 | 1010.5 |
| 20260503192503 | 13 | 312 | 16.1 | 24.1 | 0.23 | 0.46 | 0.33 | 91 | 1010.4 |
| 20260503192003 | 13 | 315 | 16.1 | 24.1 | 0.08 | 0.33 | 0.20 | 91 | 1010.3 |
| 20260503191503 | 13 | 316 | 16.1 | 24.1 | 0.08 | 0.33 | 0.20 | 91 | 1010.3 |
| 20260503191004 | 13 | 320 | 16.1 | 29.0 | 0.08 | 0.33 | 0.20 | 91 | 1010.4 |
| 20260503190504 | 13 | 327 | 14.5 | 29.0 | 0.08 | 0.33 | 0.20 | 91 | 1010.3 |
| 20260503190003 | 13 | 324 | 14.5 | 27.4 | 0.05 | 0.30 | 0.18 | 91 | 1010.3 |
| 20260503185503 | 13 | 317 | 14.5 | 24.1 | 0.05 | 0.30 | 0.18 | 91 | 1010.3 |
| 20260503185024 | 13 | 311 | 14.5 | 22.5 | 0.08 | 0.30 | 0.18 | 91 | 1010.4 |
| 20260503184503 | 13 | 318 | 16.1 | 27.4 | 0.08 | 0.30 | 0.18 | 91 | 1010.3 |
| 20260503184025 | 13 | 324 | 17.7 | 27.4 | 0.05 | 0.28 | 0.15 | 91 | 1010.3 |
| 20260503183504 | 13 | 325 | 17.7 | 29.0 | 0.03 | 0.23 | 0.13 | 91 | 1010.3 |
| 20260503183004 | 13 | 325 | 16.1 | 29.0 | 0.05 | 0.23 | 0.13 | 91 | 1010.3 |
| 20260503182503 | 12 | 326 | 16.1 | 24.1 | 0.05 | 0.23 | 0.13 | 91 | 1010.3 |
| 20260503182004 | 12 | 328 | 16.1 | 24.1 | 0.05 | 0.23 | 0.13 | 91 | 1010.3 |
| 20260503181505 | 12 | 329 | 14.5 | 24.1 | 0.05 | 0.23 | 0.13 | 91 | 1010.3 |
| 20260503181004 | 12 | 330 | 14.5 | 24.1 | 0.05 | 0.23 | 0.13 | 91 | 1010.3 |
| 20260503180504 | 12 | 329 | 12.9 | 24.1 | 0.05 | 0.23 | 0.13 | 91 | 1010.2 |
| 20260503180004 | 12 | 326 | 12.9 | 20.9 | 0.13 | 0.23 | 0.13 | 91 | 1010.3 |
| 20260503175503 | 12 | 317 | 12.9 | 20.9 | 0.13 | 0.23 | 0.13 | 91 | 1010.4 |
| 20260503175003 | 12 | 317 | 12.9 | 17.7 | 0.10 | 0.23 | 0.10 | 90 | 1010.5 |
| 20260503174503 | 12 | 320 | 12.9 | 20.9 | 0.10 | 0.23 | 0.10 | 90 | 1010.4 |
| 20260503174004 | 13 | 315 | 11.3 | 24.1 | 0.10 | 0.23 | 0.10 | 90 | 1010.4 |
| 20260503173503 | 12 | 311 | 11.3 | 24.1 | 0.10 | 0.23 | 0.10 | 90 | 1010.4 |
| 20260503173004 | 12 | 313 | 12.9 | 20.9 | 0.08 | 0.20 | 0.08 | 90 | 1010.5 |
| 20260503172504 | 12 | 314 | 12.9 | 20.9 | 0.08 | 0.20 | 0.08 | 90 | 1010.5 |
| 20260503172003 | 12 | 313 | 11.3 | 20.9 | 0.08 | 0.20 | 0.08 | 89 | 1010.5 |
| 20260503171504 | 12 | 311 | 12.9 | 17.7 | 0.05 | 0.18 | 0.05 | 89 | 1010.5 |
| 20260503171004 | 12 | 308 | 12.9 | 17.7 | 0.05 | 0.18 | 0.05 | 89 | 1010.6 |
| 20260503170504 | 13 | 315 | 16.1 | 27.4 | 0.05 | 0.18 | 0.05 | 88 | 1010.6 |
| 20260503151004 | 13 | 340 | 14.5 | 27.4 | 0.00 | 0.15 | 0.00 | 88 | 1010.9 |
| 20260503150504 | 13 | 341 | 16.1 | 24.1 | 0.00 | 0.15 | 0.00 | 88 | 1011.0 |
| 20260503131025 | 13 | 307 | 16.1 | 32.2 | 0.00 | 0.15 | 0.15 | 88 | 1011.7 |
| 20260503130504 | 13 | 317 | 14.5 | 32.2 | 0.00 | 0.15 | 0.15 | 89 | 1011.8 |
| 20260503110503 | 14 | 311 | 17.7 | 30.6 | 0.03 | 0.10 | 0.10 | 82 | 1011.2 |
| 20260503090504 | 15 | 285 | 20.9 | 38.6 | 0.00 | 0.08 | 0.08 | 77 | 1010.6 |
| 20260503081503 | 16 | 301 | 22.5 | 38.6 | 0.00 | 0.08 | 0.08 | 73 | 1010.1 |
| 20260503081003 | 16 | 302 | 22.5 | 37.0 | 0.00 | 0.08 | 0.08 | 74 | 1010.0 |
| 20260503080524 | 16 | 300 | 22.5 | 38.6 | 0.00 | 0.08 | 0.08 | 74 | 1010.0 |
| 20260503072503 | 16 | 296 | 20.9 | 38.6 | 0.00 | 0.08 | 0.08 | 75 | 1010.0 |
| 20260503072004 | 16 | 297 | 19.3 | 38.6 | 0.00 | 0.08 | 0.08 | 75 | 1009.9 |
| 20260503071504 | 16 | 300 | 16.1 | 37.0 | 0.05 | 0.08 | 0.08 | 75 | 1009.9 |
| 20260503071003 | 16 | 308 | 16.1 | 30.6 | 0.05 | 0.10 | 0.08 | 76 | 1009.9 |
| 20260503070503 | 15 | 311 | 19.3 | 29.0 | 0.05 | 0.10 | 0.08 | 78 | 1010.0 |
| 20260503055004 | 18 | 297 | 29.0 | 53.1 | 0.00 | 0.36 | 0.05 | 58 | 1009.4 |
| 20260503054504 | 18 | 302 | 27.4 | 53.1 | 0.00 | 0.36 | 0.05 | 56 | 1009.3 |
| 20260503054004 | 19 | 296 | 29.0 | 46.7 | 0.00 | 0.36 | 0.05 | 56 | 1009.3 |
| 20260503053503 | 18 | 294 | 30.6 | 46.7 | 0.00 | 0.36 | 0.05 | 58 | 1009.4 |
| 20260503053003 | 18 | 301 | 33.8 | 54.7 | 0.00 | 0.36 | 0.05 | 56 | 1009.4 |
| 20260503052503 | 18 | 304 | 33.8 | 67.6 | 0.00 | 0.36 | 0.05 | 54 | 1009.4 |
| 20260503052003 | 19 | 295 | 32.2 | 67.6 | 0.00 | 0.36 | 0.05 | 55 | 1009.5 |
| 20260503051504 | 19 | 287 | 32.2 | 54.7 | 0.00 | 0.36 | 0.05 | 56 | 1009.5 |
| 20260503051004 | 19 | 288 | 30.6 | 54.7 | 0.00 | 0.36 | 0.05 | 56 | 1009.5 |
| 20260503050504 | 18 | 296 | 30.6 | 51.5 | 0.00 | 0.38 | 0.05 | 58 | 1009.5 |
| 20260503050005 | 18 | 298 | 30.6 | 51.5 | 0.00 | 0.38 | 0.05 | 59 | 1009.5 |
| 20260503045504 | 18 | 298 | 32.2 | 51.5 | 0.00 | 0.41 | 0.05 | 59 | 1009.5 |
| 20260503045004 | 18 | 304 | 32.2 | 53.1 | 0.00 | 0.41 | 0.05 | 58 | 1009.4 |
| 20260503044504 | 18 | 303 | 30.6 | 53.1 | 0.00 | 0.43 | 0.05 | 58 | 1009.4 |
| 20260503044004 | 18 | 290 | 32.2 | 59.5 | 0.00 | 0.43 | 0.05 | 57 | 1009.4 |
| 20260503043504 | 18 | 283 | 33.8 | 59.5 | 0.00 | 0.48 | 0.05 | 55 | 1009.4 |
| 20260503043004 | 18 | 289 | 35.4 | 59.5 | 0.00 | 0.51 | 0.05 | 57 | 1009.4 |
| 20260503042504 | 18 | 288 | 38.6 | 59.5 | 0.00 | 0.51 | 0.05 | 57 | 1009.5 |
| 20260503042004 | 18 | 286 | 40.2 | 66.0 | 0.00 | 0.51 | 0.05 | 58 | 1009.5 |
| 20260503041504 | 18 | 290 | 35.4 | 66.0 | 0.00 | 0.51 | 0.05 | 59 | 1009.5 |
| 20260503041004 | 18 | 295 | 32.2 | 62.8 | 0.00 | 0.53 | 0.05 | 56 | 1009.7 |
| 20260503040505 | 18 | 292 | 32.2 | 48.3 | 0.00 | 0.53 | 0.05 | 58 | 1009.6 |
| 20260503040025 | 18 | 287 | 32.2 | 54.7 | 0.00 | 0.53 | 0.05 | 59 | 1009.6 |
| 20260503035506 | 18 | 291 | 33.8 | 54.7 | 0.00 | 0.53 | 0.05 | 59 | 1009.7 |
| 20260503035004 | 18 | 291 | 35.4 | 54.7 | 0.00 | 0.53 | 0.05 | 60 | 1009.7 |
| 20260503034504 | 18 | 292 | 35.4 | 54.7 | 0.00 | 0.53 | 0.05 | 57 | 1009.8 |
| 20260503034004 | 18 | 296 | 33.8 | 51.5 | 0.00 | 0.56 | 0.05 | 57 | 1009.9 |
| 20260503033504 | 17 | 291 | 29.0 | 57.9 | 0.00 | 0.58 | 0.05 | 60 | 1009.8 |
| 20260503033004 | 17 | 291 | 27.4 | 57.9 | 0.00 | 0.61 | 0.05 | 62 | 1009.8 |
| 20260503032525 | 17 | 296 | 29.0 | 46.7 | 0.00 | 0.61 | 0.05 | 67 | 1009.9 |
| 20260503032025 | 17 | 305 | 30.6 | 48.3 | 0.00 | 0.61 | 0.05 | 69 | 1010.1 |
| 20260503031504 | 16 | 312 | 27.4 | 48.3 | 0.00 | 0.64 | 0.05 | 69 | 1010.1 |
| 20260503031004 | 17 | 310 | 25.7 | 46.7 | 0.00 | 0.66 | 0.05 | 68 | 1010.0 |
| 20260503030504 | 17 | 308 | 27.4 | 46.7 | 0.00 | 0.66 | 0.05 | 68 | 1009.9 |
| 20260503030025 | 17 | 311 | 27.4 | 46.7 | 0.00 | 0.66 | 0.05 | 67 | 1010.1 |
| 20260503025525 | 17 | 306 | 29.0 | 48.3 | 0.00 | 0.66 | 0.05 | 67 | 1010.2 |
| 20260503025004 | 17 | 303 | 30.6 | 54.7 | 0.00 | 0.66 | 0.05 | 67 | 1010.2 |
| 20260503024504 | 17 | 304 | 30.6 | 59.5 | 0.00 | 0.66 | 0.05 | 66 | 1010.2 |
| 20260503024004 | 17 | 299 | 29.0 | 59.5 | 0.00 | 0.66 | 0.05 | 65 | 1010.2 |
| 20260503023504 | 17 | 299 | 29.0 | 46.7 | 0.00 | 0.66 | 0.05 | 66 | 1010.3 |
| 20260503023004 | 16 | 301 | 30.6 | 46.7 | 0.00 | 0.66 | 0.05 | 67 | 1010.3 |
| 20260503022504 | 17 | 298 | 30.6 | 51.5 | 0.00 | 0.66 | 0.05 | 66 | 1010.3 |
| 20260503022004 | 17 | 297 | 29.0 | 51.5 | 0.00 | 0.66 | 0.05 | 65 | 1010.4 |
| 20260503021504 | 17 | 299 | 27.4 | 51.5 | 0.00 | 0.66 | 0.05 | 65 | 1010.5 |
| 20260503021004 | 16 | 302 | 27.4 | 51.5 | 0.00 | 0.66 | 0.05 | 65 | 1010.4 |
| 20260503020504 | 16 | 299 | 27.4 | 51.5 | 0.00 | 0.66 | 0.05 | 65 | 1010.5 |
| 20260503020004 | 16 | 303 | 27.4 | 51.5 | 0.00 | 0.66 | 0.05 | 66 | 1010.5 |
| 20260503015504 | 16 | 313 | 29.0 | 46.7 | 0.00 | 0.66 | 0.05 | 65 | 1010.5 |
| 20260503015004 | 16 | 312 | 30.6 | 51.5 | 0.00 | 0.66 | 0.05 | 65 | 1010.5 |
| 20260503014504 | 16 | 304 | 32.2 | 57.9 | 0.00 | 0.66 | 0.05 | 64 | 1010.5 |
| 20260503014004 | 17 | 301 | 32.2 | 57.9 | 0.00 | 0.66 | 0.05 | 63 | 1010.5 |
| 20260503013504 | 17 | 299 | 32.2 | 57.9 | 0.00 | 0.66 | 0.05 | 64 | 1010.5 |
| 20260503013004 | 16 | 301 | 32.2 | 57.9 | 0.00 | 0.66 | 0.05 | 65 | 1010.5 |
| 20260503012504 | 16 | 307 | 30.6 | 53.1 | 0.00 | 0.66 | 0.05 | 66 | 1010.4 |
| 20260503012004 | 16 | 309 | 29.0 | 53.1 | 0.00 | 0.66 | 0.05 | 68 | 1010.5 |
| 20260503011504 | 16 | 313 | 29.0 | 53.1 | 0.00 | 0.66 | 0.05 | 67 | 1010.5 |
| 20260503011025 | 16 | 310 | 27.4 | 51.5 | 0.00 | 0.66 | 0.05 | 69 | 1010.5 |
| 20260503010504 | 16 | 311 | 27.4 | 51.5 | 0.00 | 0.66 | 0.05 | 69 | 1010.6 |
| 20260503010004 | 16 | 309 | 29.0 | 51.5 | 0.00 | 0.66 | 0.05 | 69 | 1010.6 |
| 20260503005504 | 16 | 308 | 30.6 | 51.5 | 0.03 | 0.66 | 0.05 | 70 | 1010.7 |
| 20260503005004 | 16 | 310 | 30.6 | 51.5 | 0.03 | 0.66 | 0.05 | 69 | 1010.7 |
| 20260503004504 | 16 | 312 | 29.0 | 51.5 | 0.03 | 0.66 | 0.05 | 69 | 1010.7 |
| 20260503004004 | 16 | 309 | 29.0 | 57.9 | 0.03 | 0.66 | 0.05 | 69 | 1010.8 |
| 20260503003504 | 16 | 304 | 29.0 | 57.9 | 0.03 | 0.66 | 0.05 | 70 | 1010.7 |
| 20260503003004 | 16 | 306 | 27.4 | 51.5 | 0.03 | 0.66 | 0.05 | 71 | 1010.8 |
| 20260503002504 | 16 | 305 | 27.4 | 51.5 | 0.03 | 0.66 | 0.05 | 71 | 1010.8 |
| 20260503002004 | 15 | 301 | 27.4 | 46.7 | 0.03 | 0.66 | 0.05 | 72 | 1010.8 |
| 20260503001504 | 15 | 303 | 25.7 | 46.7 | 0.03 | 0.66 | 0.05 | 73 | 1010.9 |
| 20260503001025 | 15 | 308 | 25.7 | 43.5 | 0.03 | 0.66 | 0.05 | 74 | 1010.8 |
| 20260503000525 | 15 | 313 | 25.7 | 43.5 | 0.03 | 0.66 | 0.05 | 74 | 1010.9 |
| 20260503000025 | 15 | 318 | 25.7 | 43.5 | 0.03 | 0.66 | 0.05 | 75 | 1010.9 |
| 20260502235525 | 15 | 319 | 25.7 | 43.5 | 0.00 | 0.64 | 0.03 | 76 | 1010.9 |
| 20260502235025 | 15 | 324 | 25.7 | 46.7 | 0.00 | 0.64 | 0.03 | 77 | 1011.0 |
| 20260502234504 | 14 | 325 | 22.5 | 46.7 | 0.00 | 0.64 | 0.03 | 77 | 1010.9 |
| 20260502234004 | 14 | 324 | 24.1 | 40.2 | 0.00 | 0.64 | 0.03 | 77 | 1011.0 |
| 20260502233504 | 14 | 321 | 22.5 | 45.1 | 0.00 | 0.64 | 0.03 | 78 | 1010.9 |
| 20260502233004 | 14 | 318 | 22.5 | 45.1 | 0.00 | 0.64 | 0.03 | 78 | 1010.9 |
| 20260502232503 | 13 | 318 | 20.9 | 40.2 | 0.00 | 0.64 | 0.03 | 79 | 1010.9 |
| 20260502232004 | 13 | 323 | 22.5 | 40.2 | 0.00 | 0.64 | 0.03 | 79 | 1010.8 |
| 20260502231504 | 13 | 323 | 22.5 | 40.2 | 0.00 | 0.64 | 0.03 | 79 | 1010.8 |
| 20260502231003 | 13 | 324 | 22.5 | 43.5 | 0.00 | 0.66 | 0.03 | 79 | 1010.8 |
| 20260502230504 | 13 | 321 | 20.9 | 43.5 | 0.00 | 0.66 | 0.03 | 80 | 1010.9 |
| 20260502230004 | 13 | 319 | 19.3 | 37.0 | 0.00 | 0.69 | 0.03 | 80 | 1011.0 |
| 20260502225504 | 13 | 327 | 19.3 | 37.0 | 0.00 | 0.69 | 0.03 | 80 | 1010.9 |
| 20260502225004 | 13 | 330 | 17.7 | 30.6 | 0.00 | 0.69 | 0.03 | 82 | 1010.9 |
| 20260502224504 | 13 | 332 | 17.7 | 30.6 | 0.00 | 0.69 | 0.03 | 82 | 1010.9 |
| 20260502224004 | 13 | 335 | 19.3 | 29.0 | 0.00 | 0.69 | 0.03 | 83 | 1010.9 |
| 20260502223504 | 12 | 339 | 19.3 | 29.0 | 0.00 | 0.69 | 0.03 | 83 | 1010.9 |
| 20260502223004 | 12 | 344 | 19.3 | 30.6 | 0.00 | 0.69 | 0.03 | 83 | 1010.9 |
| 20260502222504 | 12 | 347 | 19.3 | 30.6 | 0.00 | 0.69 | 0.03 | 84 | 1010.9 |
| 20260502222004 | 12 | 350 | 17.7 | 29.0 | 0.00 | 0.69 | 0.03 | 84 | 1010.8 |
| 20260502221504 | 12 | 351 | 17.7 | 29.0 | 0.00 | 0.69 | 0.03 | 84 | 1010.8 |
| 20260502221004 | 12 | 350 | 17.7 | 27.4 | 0.00 | 0.69 | 0.03 | 84 | 1010.8 |